CAPE
0 0 0 0 0 0 0 0 0 0 0 0 0 0 0 0 0 0 0 0 0 0 0 0 0 0 0 0 0 0 0 0 0 0 0 0 0 14 27 46 48 3 58 98 28 0 35
1 0 0 0 0 0 0 0 0 0 0 0 0 0 0 0 0 0 0 0 0 0 0 0 0 0 0 0 0 0 0 0 0 0 0 0 0 104 178 97 5 66 136 101 42 35 59
0 0 0 0 0 0 0 0 0 0 0 0 0 0 0 0 0 0 0 0 0 0 0 0 0 0 0 0 0 0 0 0 0 0 0 0 0 0 276 187 190 393 187 169 64 0 17
1 1 1 0 0 1 0 1 0 0 0 0 0 0 0 0 0 0 0 0 0 0 0 0 0 0 0 0 0 0 0 0 0 0 0 0 0 6 157 111 44 203 124 66 41 7 26
0 0 0 0 1 0 0 0 0 0 0 0 0 0 0 0 0 0 0 0 0 0 0 0 0 0 0 0 0 0 0 0 0 0 0 0 0 188 168 35 17 2 2 30 61 126 33
0 0 0 0 1 0 0 0 0 0 0 0 0 0 0 0 0 0 0 0 0 0 0 0 0 0 0 0 0 0 0 0 0 0 0 0 0 67 97 65 2 7 33 57 41 59 162
0 0 0 1 0 0 0 0 0 0 0 0 0 0 0 0 0 0 0 0 0 0 0 0 0 0 0 0 0 0 0 0 0 0 0 0 0 0 0 21 11 14 90 6 56 126 150
0 0 0 0 0 0 0 0 0 0 0 0 0 0 0 0 0 0 0 0 0 0 0 0 0 0 0 0 0 0 0 0 0 0 0 0 0 0 0 0 0 49 58 14 34 25 109
0 0 0 0 0 0 0 0 0 0 0 0 0 0 0 0 0 0 0 0 0 0 0 0 0 0 0 0 0 0 0 0 0 0 0 0 0 0 0 0 5 138 60 17 13 9 228
0 0 0 0 0 0 0 0 0 0 0 0 0 0 0 0 0 0 0 0 0 0 0 0 0 0 0 0 0 0 0 0 0 0 0 0 0 0 0 0 11 132 61 44 71 58 30
0 0 0 0 0 0 0 0 0 0 0 0 0 0 0 0 0 0 0 0 0 0 0 0 0 0 0 0 0 0 0 0 0 0 0 0 0 0 0 0 23 0 41 86 202 115 112
0 0 0 0 1 1 0 0 0 0 0 0 0 0 0 0 0 0 0 0 0 0 0 0 0 0 0 0 0 0 0 0 0 0 0 0 0 0 0 0 0 36 100 83 141 79 22
0 0 0 0 1 0 0 0 0 0 0 0 0 0 0 0 0 0 0 0 0 0 0 0 0 0 0 0 0 0 0 0 0 0 0 0 0 0 0 0 0 0 0 0 15 55 12
0 0 0 0 0 0 0 0 0 0 0 0 0 0 0 0 0 0 0 0 0 0 0 0 0 0 0 0 0 0 0 0 0 0 0 0 0 0 0 0 0 0 0 0 0 0 0
1 1 0 0 0 0 0 0 0 0 0 0 0 0 0 0 0 0 0 0 0 0 0 0 0 0 0 0 0 0 0 0 0 0 0 0 0 0 0 0 0 0 0 0 0 0 0
1 1 1 0 0 0 0 0 0 0 0 0 0 0 0 0 0 0 0 0 0 0 0 0 0 0 0 0 0 0 0 0 0 0 0 0 0 0 4 5 0 0 0 3 1 0 0
1 2 2 1 1 1 2 0 0 0 0 0 0 0 0 0 0 0 0 0 0 0 0 0 0 0 0 0 0 0 0 0 0 0 0 0 0 0 0 1 1 0 0 0 0 0 0
2 2 2 1 1 2 1 0 0 0 0 0 0 0 0 0 0 0 0 0 0 0 0 0 0 0 0 0 0 0 0 0 0 0 0 0 0 0 0 0 0 0 0 0 0 0 0
2 1 1 1 1 1 0 0 0 0 0 0 0 0 0 0 0 0 0 0 0 0 0 0 0 0 0 0 0 0 0 0 0 0 0 0 0 0 0 0 0 0 0 0 0 0 0
1 1 1 1 1 1 0 0 0 0 0 0 0 0 0 0 0 0 0 0 0 0 0 0 0 0 0 0 0 0 0 0 0 0 0 0 0 0 0 0 0 0 0 0 0 0 0
1 1 1 1 1 0 0 0 0 0 0 0 0 0 0 0 0 0 0 0 0 0 0 0 0 0 0 0 0 0 0 0 0 0 0 0 0 0 0 0 0 0 0 0 0 0 0
1 2 0 0 0 0 0 0 0 0 0 0 0 0 0 0 0 0 0 0 0 0 0 0 0 0 0 0 0 0 0 0 0 0 0 0 0 0 0 0 0 0 0 0 0 0 14
0 0 1 0 0 0 0 0 0 0 0 0 0 0 0 0 0 0 0 0 0 0 0 0 0 0 0 0 0 0 0 0 0 0 0 0 0 0 0 0 0 0 0 0 0 0 28
0 1 2 0 0 1 0 2 1 1 4 0 0 0 0 0 0 0 0 0 0 0 0 0 1 0 6 0 0 0 0 0 0 0 0 0 0 0 0 0 0 0 0 0 5 15 19
0 0 1 0 0 2 1 3 1 2 5 1 0 0 0 0 0 0 0 0 0 0 0 0 24 18 17 0 0 0 0 0 0 0 0 0 0 0 0 0 0 0 0 44 34 60 114
0 1 0 0 0 0 0 2 5 4 14 0 1 0 0 2 0 0 0 0 0 0 0 0 3 5 0 0 0 0 0 0 0 0 0 0 0 0 0 0 0 0 3 62 35 21 222
0 0 0 0 0 0 2 0 12 15 16 3 0 0 0 11 0 0 0 0 0 0 0 0 0 26 0 0 0 0 0 0 0 0 0 0 0 0 0 0 0 0 10 69 5 0 140
0 0 0 0 0 1 1 1 2 16 16 2 0 0 1 8 0 0 0 0 0 0 0 0 0 19 2 5 0 0 0 0 0 0 0 0 0 0 0 0 0 0 0 0 0 80 170
0 0 0 0 2 1 1 1 2 12 8 7 0 0 0 0 0 0 0 0 0 0 0 0 0 0 17 0 0 0 0 0 0 2 0 0 0 0 0 0 0 0 0 0 28 55 137
CIN
-0 -0 -0 -0 -0 -0 -0 -0 -0 -0 -0 -0 -0 -0 -0 -0 -0 -0 -0 -0 -0 -0 -0 -0 -0 -0 -0 -0 -0 -0 -0 -0 -0 -0 -0 -0 -0 -42 -70 -83 -99 -46 -61 -32 -73 -0 -43
-0 -0 -0 -0 -0 -0 -0 -0 -0 -0 -0 -0 -0 -0 -0 -0 -0 -0 -0 -0 -0 -0 -0 -0 -0 -0 -0 -0 -0 -0 -0 -0 -0 -0 -0 -0 -0 -119 -65 -98 -76 -82 -47 -35 -55 -74 -55
-0 -0 -0 -0 -0 -0 -0 -0 -0 -0 -0 -0 -0 -0 -0 -0 -0 -0 -0 -0 -0 -0 -0 -0 -0 -0 -0 -0 -0 -0 -0 -0 -0 -0 -0 -0 -0 -0 -85 -57 -78 -45 -27 -35 -65 -12 -66
-0 -0 -0 -0 -0 -0 -0 -0 -0 -0 -0 -0 -0 -0 -0 -0 -0 -0 -0 -0 -0 -0 -0 -0 -0 -0 -0 -0 -0 -0 -0 -0 -0 -0 -0 -0 -0 -38 -115 -117 -99 -28 -27 -40 -60 -138 -68
-0 -0 -0 -0 -0 -0 -0 -0 -0 -0 -0 -0 -0 -0 -0 -0 -0 -0 -0 -0 -0 -0 -0 -0 -0 -0 -0 -0 -0 -0 -0 -0 -0 -0 -0 -0 -0 -121 -146 -136 -63 -75 -39 -52 -27 -43 -49
-0 -0 -0 -0 -0 -0 -0 -0 -0 -0 -0 -0 -0 -0 -0 -0 -0 -0 -0 -0 -0 -0 -0 -0 -0 -0 -0 -0 -0 -0 -0 -0 -0 -0 -0 -0 -0 -182 -146 -121 -7 -14 -54 -105 -67 -94 -51
-0 -0 -0 -0 -0 -0 -0 -0 -0 -0 -0 -0 -0 -0 -0 -0 -0 -0 -0 -0 -0 -0 -0 -0 -0 -0 -0 -0 -0 -0 -0 -0 -0 -0 -0 -0 -0 -0 -0 -49 -45 -40 -74 -52 -103 -94 -66
-0 -0 -0 -0 -0 -0 -0 -0 -0 -0 -0 -0 -0 -0 -0 -0 -0 -0 -0 -0 -0 -0 -0 -0 -0 -0 -0 -0 -0 -0 -0 -0 -0 -0 -0 -0 -0 -0 -0 -0 -0 -73 -41 -51 -131 -133 -107
-0 -0 -0 -0 -0 -0 -0 -0 -0 -0 -0 -0 -0 -0 -0 -0 -0 -0 -0 -0 -0 -0 -0 -0 -0 -0 -0 -0 -0 -0 -0 -0 -0 -0 -0 -0 -0 -0 -0 -0 -29 -108 -40 -47 -38 -130 -95
-0 -0 -0 -0 -0 -0 -0 -0 -0 -0 -0 -0 -0 -0 -0 -0 -0 -0 -0 -0 -0 -0 -0 -0 -0 -0 -0 -0 -0 -0 -0 -0 -0 -0 -0 -0 -0 -0 -0 -0 -29 -110 -55 -51 -50 -47 -14
-0 -0 -0 -0 -0 -0 -0 -0 -0 -0 -0 -0 -0 -0 -0 -0 -0 -0 -0 -0 -0 -0 -0 -0 -0 -0 -0 -0 -0 -0 -0 -0 -0 -0 -0 -0 -0 -0 -0 -0 -50 -0 -44 -42 -70 -55 -34
-0 -0 -0 -0 -0 -0 -0 -0 -0 -0 -0 -0 -0 -0 -0 -0 -0 -0 -0 -0 -0 -0 -0 -0 -0 -0 -0 -0 -0 -0 -0 -0 -0 -0 -0 -0 -0 -0 -0 -0 -0 -50 -50 -87 -106 -48 -12
-0 -0 -0 -0 -0 -0 -0 -0 -0 -0 -0 -0 -0 -0 -0 -0 -0 -0 -0 -0 -0 -0 -0 -0 -0 -0 -0 -0 -0 -0 -0 -0 -0 -0 -0 -0 -0 -0 -0 -0 -0 -0 -0 -0 -12 -18 -16
-0 -0 -0 -0 -0 -0 -0 -0 -0 -0 -0 -0 -0 -0 -0 -0 -0 -0 -0 -0 -0 -0 -0 -0 -0 -0 -0 -0 -0 -0 -0 -0 -0 -0 -0 -0 -0 -0 -0 -0 -0 -0 -0 -0 -0 -0 -0
-0 -0 -0 -0 -0 -0 -0 -0 -0 -0 -0 -0 -0 -0 -0 -0 -0 -0 -0 -0 -0 -0 -0 -0 -0 -0 -0 -0 -0 -0 -0 -0 -0 -0 -0 -0 -0 -0 -0 -0 -0 -0 -0 -0 -2 -0 -0
-0 -0 -0 -0 -0 -4 -0 -0 -0 -0 -0 -0 -0 -0 -0 -0 -0 -0 -0 -0 -0 -0 -0 -0 -0 -0 -0 -0 -0 -0 -0 -0 -0 -0 -0 -0 -0 -0 -40 -47 -10 -0 -0 -27 -13 -0 -0
-0 -0 -0 -0 -0 -0 -0 -0 -0 -0 -0 -0 -0 -0 -0 -0 -0 -0 -0 -0 -0 -0 -0 -0 -0 -0 -0 -0 -0 -0 -0 -0 -0 -0 -0 -0 -0 -0 -0 -12 -10 -0 -0 -0 -0 -0 -0
-0 -0 -0 -0 -0 -0 -0 -0 -0 -0 -0 -0 -0 -0 -0 -0 -0 -0 -0 -0 -0 -0 -0 -0 -0 -0 -0 -0 -0 -0 -0 -0 -0 -0 -0 -0 -0 -0 -0 -0 -0 -0 -0 -0 -0 -0 -0
-0 -0 -0 -0 -0 -0 -0 -0 -0 -0 -0 -0 -0 -0 -0 -0 -0 -0 -0 -0 -0 -0 -0 -0 -0 -0 -0 -0 -0 -0 -0 -0 -0 -0 -0 -0 -0 -0 -0 -0 -0 -0 -0 -0 -0 -0 -0
-0 -0 -0 -0 -1 -0 -0 -0 -0 -0 -0 -0 -0 -0 -0 -0 -0 -0 -0 -0 -0 -0 -0 -0 -0 -0 -0 -0 -0 -0 -0 -0 -0 -0 -0 -0 -0 -0 -0 -0 -0 -0 -0 -0 -0 -0 -0
-0 -0 -1 -4 -1 -0 -0 -0 -0 -0 -0 -0 -0 -0 -0 -0 -0 -0 -0 -0 -0 -0 -0 -0 -0 -0 -0 -0 -0 -0 -0 -0 -0 -0 -0 -0 -0 -0 -0 -0 -0 -0 -0 -0 -0 -3 -0
-0 -4 -0 -0 -0 -0 -0 -0 -0 -0 -0 -0 -0 -0 -0 -0 -0 -0 -0 -0 -0 -0 -0 -0 -0 -0 -0 -0 -0 -0 -0 -0 -0 -0 -0 -0 -0 -0 -0 -0 -0 -0 -0 -0 -0 -0 -84
-0 -0 -0 -0 -0 -0 -0 -0 -0 -0 -0 -0 -0 -0 -0 -0 -0 -0 -0 -0 -0 -0 -0 -0 -0 -0 -0 -0 -0 -0 -0 -0 -0 -0 -0 -0 -0 -0 -0 -0 -0 -0 -0 -0 -0 -0 -71
-0 -0 -0 -0 -0 -0 -0 -0 -0 -0 -1 -0 -0 -0 -0 -0 -0 -0 -0 -0 -0 -0 -0 -0 -98 -0 -143 -0 -0 -0 -0 -0 -0 -0 -0 -0 -0 -0 -0 -0 -0 -0 -0 -0 -34 -87 -114
-0 -0 -0 -0 -0 -0 -0 -2 -0 -1 -3 -2 -1 -0 -0 -0 -0 -0 -0 -0 -0 -0 -0 -0 -111 -163 -292 -0 -0 -0 -0 -0 -0 -0 -0 -0 -0 -0 -0 -0 -0 -0 -0 -53 -33 -71 -116
-0 -0 -0 -0 -0 -0 -0 -3 -3 -5 -0 -4 -0 -0 -0 -0 -0 -0 -0 -0 -0 -0 -0 -0 -184 -238 -0 -0 -0 -0 -0 -0 -0 -0 -0 -0 -0 -0 -0 -0 -0 -0 -10 -63 -56 -33 -97
-0 -0 -0 -0 -0 -0 -0 -0 -4 -2 -0 -4 -0 -0 -2 -0 -0 -0 -0 -0 -0 -0 -0 -0 -0 -121 -0 -0 -0 -0 -0 -0 -0 -0 -0 -0 -0 -0 -0 -0 -0 -0 -57 -71 -17 -0 -92
-0 -0 -0 -0 -0 -0 -0 -0 -3 -1 -0 -4 -0 -0 -4 -0 -0 -0 -0 -0 -0 -0 -0 -0 -0 -122 -46 -49 -0 -0 -0 -0 -0 -0 -0 -0 -0 -0 -0 -0 -0 -0 -0 -0 -0 -89 -68
-0 -0 -0 -0 -1 -1 -0 -1 -1 -3 -3 -0 -0 -0 -0 -0 -0 -0 -0 -0 -0 -0 -0 -0 -0 -0 -79 -51 -0 -0 -0 -0 -0 -10 -0 -0 -0 -0 -0 -0 -0 -0 -0 -0 -68 -48 -69
Wind_Speed
12 13 13 13 11 8 6 5 6 7 8 9 9 9 8 7 6 6 6 13 18 16 17 18 17 15 11 11 12 12 9 5 5 8 15 17 17 16 17 17 20 7 18 20 19 8 19
14 16 16 16 14 13 11 8 7 7 7 9 10 10 8 6 5 5 5 6 10 14 16 15 14 13 12 10 13 10 7 5 4 7 13 15 15 16 16 18 18 17 6 20 20 16 20
17 18 18 18 17 15 14 12 10 7 8 6 7 7 7 5 4 4 4 6 8 11 13 15 14 14 14 13 14 9 8 6 5 4 7 10 12 11 17 17 19 20 20 21 18 15 20
20 21 22 23 22 19 18 15 12 9 8 6 7 6 5 4 4 4 5 6 10 15 18 17 16 15 15 14 13 7 6 9 9 8 15 19 16 10 12 13 14 18 18 15 17 19 17
17 20 21 23 24 23 21 18 16 14 11 9 9 8 5 4 4 4 4 6 11 16 17 17 17 17 15 17 11 11 5 11 11 14 15 17 13 9 10 11 14 18 15 14 15 15 14
20 22 25 25 25 24 24 22 21 20 19 17 14 13 8 5 5 5 6 13 18 17 16 16 15 17 14 13 9 8 9 13 12 13 13 9 11 6 8 8 14 13 17 14 13 14 14
26 27 29 28 27 28 28 28 27 26 26 25 23 20 16 12 7 5 16 19 20 19 16 13 12 15 18 13 9 10 7 6 9 10 9 12 12 3 6 9 13 9 10 13 13 13 14
30 31 32 31 31 31 31 31 31 31 30 30 28 26 23 19 13 7 17 21 20 17 9 10 11 13 16 12 11 11 7 7 7 7 8 12 15 5 9 7 7 7 8 11 14 13 11
32 34 33 33 32 33 33 34 34 34 34 33 32 31 27 24 16 15 14 15 16 10 15 10 15 15 13 12 11 8 8 7 7 8 6 8 11 12 14 15 9 5 7 7 14 10 13
33 33 32 34 36 37 37 38 38 38 37 36 35 34 31 27 13 14 11 15 13 14 17 13 15 15 13 13 13 8 14 9 8 9 9 14 19 19 21 20 4 6 9 7 10 11 18
33 35 37 38 39 40 41 41 41 40 39 38 37 35 33 21 11 11 13 22 18 16 16 15 13 14 13 13 15 12 7 10 12 14 12 15 17 15 17 10 8 13 8 6 9 11 15
37 39 40 41 42 43 43 43 43 43 42 40 39 37 33 16 9 5 22 24 16 16 14 13 12 11 10 11 12 13 9 12 13 15 16 22 17 15 13 11 15 10 10 12 13 13 22
40 41 42 43 44 44 44 44 44 44 44 44 41 39 25 14 10 10 18 16 13 12 17 13 10 10 8 9 10 9 11 11 8 9 11 17 16 18 11 14 14 10 9 17 18 17 20
41 43 43 44 44 43 42 42 42 40 40 41 40 37 18 10 11 11 10 11 8 11 15 19 16 9 7 8 8 8 10 8 12 9 12 13 16 16 11 12 15 12 12 16 23 22 21
42 43 43 43 42 43 43 43 43 42 42 43 40 26 18 15 2 8 7 5 8 11 17 21 17 11 10 14 6 5 3 12 12 6 10 13 15 15 11 11 11 13 14 13 15 19 22
42 42 42 43 43 43 42 43 44 45 43 42 36 25 17 14 5 6 7 7 8 11 20 19 16 16 18 20 8 2 10 18 11 9 7 10 15 15 13 14 15 12 9 17 18 20 25
41 42 41 41 42 42 42 43 44 45 44 40 26 20 23 9 7 8 8 10 12 15 20 21 22 22 17 19 14 16 14 12 11 8 9 11 14 14 12 14 12 14 15 18 17 18 23
41 41 41 40 40 40 41 42 43 44 45 33 24 18 16 12 8 11 9 12 13 20 26 22 19 20 18 16 15 13 13 14 5 9 13 14 13 16 13 11 15 14 15 16 20 22 20
39 39 40 39 38 38 39 40 41 41 38 28 27 15 17 12 9 8 16 20 20 21 22 21 23 24 26 13 15 12 13 11 9 12 11 11 17 16 18 17 14 15 13 15 15 16 17
38 38 37 37 36 36 37 38 39 39 36 23 20 18 15 14 12 11 15 18 22 23 23 25 26 26 19 15 14 12 11 11 14 15 12 13 15 16 15 16 15 16 12 10 14 18 17
35 35 35 35 35 35 35 37 37 38 36 20 17 15 14 17 14 18 21 19 22 24 21 24 23 24 21 18 17 16 16 15 15 9 15 15 17 17 18 18 19 17 14 8 9 13 15
33 33 33 33 33 33 34 34 35 36 33 19 18 17 17 17 15 17 20 19 23 24 23 22 25 28 24 23 21 18 15 15 16 12 13 16 16 14 15 18 21 23 21 12 6 9 15
31 31 32 32 33 32 32 32 33 32 27 19 18 17 16 15 15 17 16 23 26 27 27 24 29 31 26 25 28 29 14 9 7 8 12 13 13 17 21 21 24 26 24 22 8 6 8
32 31 31 31 31 31 31 30 29 27 23 19 18 18 18 19 17 16 22 31 32 30 28 33 31 27 23 28 17 14 14 9 8 11 10 12 15 19 21 22 27 21 22 10 8 11 8
30 30 29 29 30 30 30 29 28 26 22 19 17 17 17 19 18 22 23 26 31 31 27 29 29 26 32 20 18 16 18 15 14 13 13 14 15 21 21 22 25 22 18 12 7 13 11
28 28 28 28 29 28 28 29 28 26 22 20 18 12 15 19 18 16 22 25 31 28 29 28 31 29 23 19 22 20 23 19 17 16 17 15 17 18 20 23 22 17 16 9 10 10 10
28 27 27 28 28 28 28 28 30 25 22 20 18 15 16 17 20 21 24 24 21 22 25 28 27 26 24 25 32 28 32 20 24 22 22 19 17 15 18 20 22 15 10 11 14 15 7
28 27 27 27 27 27 28 28 28 25 22 20 18 14 16 19 24 22 22 26 24 22 24 24 26 21 24 24 25 24 25 19 21 17 15 17 17 19 19 20 22 9 11 13 13 9 7
28 27 27 26 26 27 28 28 26 24 22 18 17 17 23 15 18 28 33 31 7 9 23 22 21 23 19 20 24 27 28 22 19 19 13 19 19 21 18 18 16 13 15 13 6 6 8
Wind_Direction
350 348 345 339 334 330 329 327 317 309 303 297 292 284 271 252 227 208 205 261 282 263 267 284 288 303 338 320 329 336 355 23 15 68 101 94 97 90 84 71 49 294 133 157 86 215 204
353 351 349 346 340 336 331 329 324 318 312 306 300 291 273 247 211 191 183 185 232 262 279 256 296 318 341 322 330 12 18 9 356 73 94 99 30 60 46 65 67 63 112 143 122 99 214
354 352 350 346 343 339 335 331 329 327 321 317 307 293 272 234 206 191 167 161 174 155 107 5 357 356 328 324 314 12 45 345 325 28 350 5 18 58 64 59 71 95 70 109 116 118 156
357 356 354 351 346 341 337 332 329 329 327 327 313 297 266 226 189 162 165 168 145 111 75 34 20 344 319 332 313 339 333 304 299 301 273 264 295 44 15 43 14 58 89 93 130 114 143
345 346 345 346 345 342 337 331 327 323 319 319 313 301 270 225 193 172 186 205 125 77 54 40 14 341 316 303 320 286 349 292 290 277 277 289 325 349 17 47 10 351 200 197 99 137 107
343 344 345 344 340 336 333 329 325 322 318 314 308 301 282 242 210 214 245 77 53 49 54 50 31 351 332 330 329 321 304 284 294 285 291 329 320 356 344 21 336 4 322 43 69 96 119
345 346 345 341 335 335 333 331 328 325 322 319 314 305 291 267 229 190 60 59 50 49 43 101 86 31 294 347 355 315 326 328 312 307 295 300 300 355 110 116 344 34 37 32 20 38 52
345 345 344 337 335 334 332 330 328 326 324 321 317 311 300 283 253 108 65 45 50 49 135 139 120 134 158 17 344 288 344 318 312 312 312 299 274 290 331 10 131 95 43 1 352 10 26
344 343 337 334 332 331 330 329 328 327 325 322 319 315 306 293 274 49 61 74 57 86 65 186 80 86 67 53 355 22 43 346 312 308 336 312 288 308 311 317 356 63 80 34 345 359 330
340 333 330 331 331 330 329 329 328 326 324 321 320 318 311 298 21 23 70 56 263 70 29 84 43 52 73 55 341 33 111 352 324 309 316 285 277 290 295 294 17 348 147 14 357 360 310
329 330 331 333 333 331 330 329 327 325 322 318 316 317 317 345 7 24 32 281 328 41 26 33 32 21 37 60 15 56 8 313 292 287 299 284 288 310 308 342 97 337 36 101 350 351 340
332 333 334 335 334 332 332 330 327 324 322 317 313 314 322 355 359 36 318 312 17 14 22 18 50 24 12 357 15 13 18 299 287 287 284 261 294 311 325 340 335 359 349 337 336 333 308
334 334 335 336 335 334 334 332 329 324 320 317 311 307 333 346 350 359 327 352 9 25 356 12 36 31 67 15 345 18 53 69 6 320 298 287 298 293 328 322 336 348 344 311 309 313 307
335 336 336 336 336 333 330 327 323 318 316 312 306 306 342 344 338 332 344 349 11 14 358 340 335 358 80 60 358 338 326 351 301 335 313 320 314 308 312 326 335 323 329 323 300 302 305
337 338 336 330 328 333 331 329 326 322 318 317 315 339 346 342 132 335 337 332 352 353 337 323 327 335 343 336 354 53 13 317 316 109 309 312 322 339 350 349 356 340 325 341 335 319 309
332 329 332 333 337 337 332 331 331 327 321 320 340 346 351 346 74 334 331 300 323 328 321 326 322 327 307 306 310 31 318 278 294 95 329 358 328 320 327 335 337 343 10 328 322 316 304
333 333 337 338 339 336 342 338 338 334 325 328 360 358 338 32 359 327 311 302 301 312 315 311 303 304 319 308 306 286 298 292 293 329 336 347 340 325 348 348 2 342 335 331 334 325 310
337 334 334 342 342 344 344 340 339 341 338 358 1 359 5 331 342 322 309 308 305 306 298 302 307 307 307 306 305 302 294 297 327 326 319 328 339 321 329 358 353 360 347 340 323 320 321
337 336 334 339 344 345 344 343 342 344 353 360 351 2 354 341 334 316 309 301 302 301 303 297 289 299 297 294 295 305 305 301 308 311 325 336 326 322 317 317 331 340 357 355 349 346 330
337 338 339 342 345 346 345 343 342 344 349 3 358 352 353 357 354 345 326 306 298 292 292 294 284 293 296 290 289 294 304 301 300 304 321 327 326 322 313 315 330 329 349 1 346 334 336
339 342 342 343 344 344 345 343 343 343 344 4 0 353 352 332 332 330 315 305 300 293 291 293 283 296 294 282 281 284 295 297 301 308 308 316 317 319 315 312 313 324 335 347 332 339 335
341 344 344 345 345 345 343 344 344 343 344 357 350 345 342 329 328 325 315 304 297 293 287 289 289 285 288 282 284 282 290 299 286 292 307 306 313 327 323 320 314 304 320 337 327 332 326
343 345 345 344 345 345 343 344 344 346 351 352 350 343 337 329 325 320 314 300 293 297 282 281 285 282 284 289 284 281 293 291 300 283 298 307 314 314 308 316 306 300 312 330 345 326 336
340 343 344 345 347 347 346 347 348 350 355 353 348 341 333 321 320 315 306 292 287 289 286 275 282 282 286 296 300 303 290 291 282 289 304 308 311 310 309 315 297 306 315 348 359 332 347
342 343 345 347 348 349 350 350 349 348 349 349 346 341 334 323 325 312 307 297 291 289 286 280 279 284 281 291 277 278 274 280 282 289 298 306 309 303 306 304 303 312 317 335 352 318 334
342 343 345 346 347 350 350 348 346 345 350 346 343 347 340 329 326 322 310 300 291 293 286 278 277 283 276 275 270 265 263 274 279 289 296 301 305 300 301 298 300 315 322 14 351 336 340
340 342 343 343 344 346 345 344 340 346 348 345 343 339 336 328 320 309 304 302 304 298 291 283 280 275 274 265 267 265 262 284 277 281 284 283 292 294 296 297 296 310 330 329 320 320 348
337 338 339 340 341 342 341 339 338 344 343 343 342 346 337 324 312 303 298 294 296 297 289 287 283 278 268 260 258 268 266 272 281 284 284 281 281 286 293 294 291 325 327 312 327 344 342
334 336 336 337 338 337 334 333 337 339 338 345 343 341 328 327 315 303 288 285 274 298 289 286 281 283 281 272 265 264 271 276 282 272 290 278 287 282 290 291 300 314 318 332 10 357 339